COSMOS 2307 (GLONASS)

Satellite information

Favourite Embed

Satellite Type and Status

PAYLOADIN ORBIT

Key statistics

Satellite COSMOS 2307 (GLONASS) at a glance.

Uptime

11080

Days in orbit

Revolutions

≈ 2.1

Per day

Orbit

MEO

Medium Earth Orbit

Inclination

64.2

Latest

Satellite identification and parameters

Extended collection of information and parameters for COSMOS 2307 (GLONASS).

Object identification

Identified? True

Debris? False

Object name: COSMOS 2307 (GLONASS)

International designator: 1995-009A

Object number (NORAD): 23511

Object ID (CCSDS): 23511

Country: COMMONWEALTH OF INDEPENDENT STATES (CIS)

Current information (Y/N): Y

RCS size: LARGE

Orbital parameters

Period: 675.723 minutes

Inclination: 64.247 deg

SMA: 25507.771 km

Apoapsis: 19144.982 km

Periapsis: 19114.291 km

RAAN: 313.4988 deg

Eccentricy: 0.0006016

Argument of periapsis: 135.2551 deg

Mean anomaly: 259.8581 deg

Mean motion: 2.13105172 rev/day

Mean motion (dot): -0.00000077 rev/day2

B* drag term: 0.0 1/REarth

Two-line elements (TLE)

Creation date: July 6, 2025, 6:05 p.m.

Reference frame: TEME

Reference center: EARTH

Epoch: July 6, 2025, 12:36 a.m. UTC

TLE line 0: 0 COSMOS 2307 (GLONASS)

TLE line 1: 1 23511U 95009A 25187.02561801 -.00000077 00000-0 00000-0 0 9996

TLE line 2: 2 23511 64.2470 313.4988 0006016 135.2551 259.8581 2.13105172235828

Live tracking on map

Real-time ground track for satellite COSMOS 2307 (GLONASS).

In-orbit conjunctions

There are no conjunctions computed for COSMOS 2307 (GLONASS), at the moment. Check back to stay up to date, as we update our databases every day.

Go to all conjunctions

Associated space launch

GLONASS navigation satellites

COSMOS 2307 (GLONASS) was lifted into orbit during the mission ‘Proton | Uragan 63 to 65’, on board a Proton space rocket.

The launch took place on March 7, 1995, 9:23 a.m. from 200/39 (200L).

For more information about the launch, click the button.

Launch to space Proton | Uragan 63 to 65
Proton | Uragan 63 to 65

Agency: N/A

Status: Launch Successful

Launch date: March 7, 1995, 9:23 a.m. UTC

Rocket: Proton

Launch pad: 200/39 (200L)

Location: Baikonur Cosmodrome, Republic of Kazakhstan

...

Latest news about this satellite

There are no fresh news available about this satellite. Check back as we update our databases every day.


Newsletter sign-up

Weekly statistics, charts and insights to help you stay on top of the space industry.